Weather History for Charlevoix, MI

Change the Weather History Date:

Sunday, December 9, 2012

  Actual Average Record
Temperature  
Mean Temperature 29 °F -  
Max Temperature 33 °F 36 °F 42 °F (2004)
Min Temperature 25 °F 23 °F 13 °F (2013)
Degree Days  
Heating Degree Days 36    
Moisture  
Dew Point 24 °F    
Average Humidity 78    
Maximum Humidity 94    
Minimum Humidity 63    
Precipitation  
Precipitation 0.00 in - - ()
Sea Level Pressure  
Sea Level Pressure 30.09 in    
Wind  
Wind Speed 8 mph (East)    
Max Wind Speed 20 mph    
Max Gust Speed 26 mph    
Visibility 8 miles    
Events Snow    
Averages and records for this station are not official NWS values.
T = Trace of Precipitation, MM = Missing Value Source: NWS Daily Summary

Daily Weather History Graph

Daily Weather History Graph

Search for Another Location

Airport:

Trip Planner

Search our weather history database for the weather conditions in past years. The results will help you decide how hot, cold, wet, or windy it might be!

Date:

Astronomy

Dec. 09, 2012 Rise Set
Actual Time 8:09 AM EST 4:58 PM EST
Civil Twilight 7:35 AM EST 5:32 PM EST
Nautical Twilight 6:57 AM EST 6:09 PM EST
Astronomical Twilight 6:22 AM EST 6:45 PM EST
Moon 3:32 AM EST (12/9) 2:12 PM EST (12/9)
Length of Visible Light 9h 56m
Length of Day
8h 49m
Waning Crescent, 19% of the Moon is Illuminated
Dec 9
Waning Crescent
Dec 13
New
Dec 20
First Quarter
Dec 28
Full
Jan 4
Last Quarter

Hourly Weather History & Observations

Time (EST) Temp. Windchill Dew Point Humidity Pressure Visibility Wind Dir Wind Speed Gust Speed Precip Events Conditions
12:14 AM 31.5 °F 25.8 °F 21.0 °F 65% 30.19 in 10.0 mi NNE 5.8 mph - N/A   Overcast
12:35 AM 31.5 °F 28.1 °F 20.7 °F 64% 30.20 in 10.0 mi NE 3.5 mph - N/A   Overcast
12:55 AM 31.3 °F 24.7 °F 21.6 °F 67% 30.21 in 10.0 mi ENE 6.9 mph - N/A   Overcast
1:15 AM 31.5 °F 26.8 °F 20.7 °F 64% 30.22 in 10.0 mi East 4.6 mph - N/A   Overcast
1:35 AM 31.5 °F 26.8 °F 20.5 °F 64% 30.23 in 10.0 mi East 4.6 mph - N/A   Overcast
1:55 AM 31.5 °F 26.8 °F 20.3 °F 63% 30.24 in 10.0 mi SE 4.6 mph - N/A   Overcast
2:14 AM 31.1 °F 26.4 °F 20.3 °F 64% 30.25 in 10.0 mi SE 4.6 mph - N/A   Overcast
2:35 AM 31.1 °F 26.4 °F 20.3 °F 64% 30.25 in 10.0 mi SSE 4.6 mph - N/A   Overcast
2:54 AM 30.7 °F 26.0 °F 20.7 °F 66% 30.25 in 10.0 mi SSE 4.6 mph - N/A   Overcast
3:15 AM 30.7 °F 26.0 °F 20.7 °F 66% 30.25 in 10.0 mi SSE 4.6 mph - N/A   Overcast
3:34 AM 30.6 °F 25.8 °F 20.3 °F 66% 30.24 in 10.0 mi SE 4.6 mph - N/A   Overcast
3:55 AM 30.0 °F - 20.1 °F 67% 30.24 in 10.0 mi Calm Calm - N/A   Mostly Cloudy
4:14 AM 29.1 °F 24.1 °F 19.8 °F 68% 30.24 in 10.0 mi SSE 4.6 mph - N/A   Scattered Clouds
4:35 AM 28.9 °F - 19.2 °F 67% 30.24 in 10.0 mi Calm Calm - N/A   Clear
4:55 AM 28.0 °F - 18.9 °F 68% 30.24 in 10.0 mi Calm Calm - N/A   Clear
5:15 AM 27.0 °F - 19.2 °F 73% 30.24 in 10.0 mi Calm Calm - N/A   Clear
5:34 AM 27.0 °F - 19.6 °F 74% 30.24 in 10.0 mi Calm Calm - N/A   Clear
5:55 AM 25.9 °F - 20.1 °F 79% 30.24 in 10.0 mi Calm Calm - N/A   Clear
6:14 AM 25.0 °F - 20.3 °F 82% 30.25 in 10.0 mi Calm Calm - N/A   Clear
6:35 AM 27.3 °F 22.0 °F 21.0 °F 77% 30.24 in 10.0 mi ENE 4.6 mph - N/A   Scattered Clouds
7:15 AM 29.3 °F 21.5 °F 20.8 °F 71% 30.21 in 10.0 mi East 8.1 mph - N/A   Mostly Cloudy
7:34 AM 29.5 °F 22.5 °F 20.8 °F 70% 30.23 in 10.0 mi East 6.9 mph - N/A   Mostly Cloudy
7:55 AM 29.3 °F 22.3 °F 20.7 °F 70% 30.23 in 10.0 mi East 6.9 mph - N/A   Overcast
8:15 AM 29.8 °F 21.5 °F 20.7 °F 69% 30.23 in 10.0 mi East 9.2 mph - N/A   Overcast
8:35 AM 30.2 °F 22.6 °F 20.7 °F 68% 30.23 in 10.0 mi East 8.1 mph - N/A   Overcast
8:54 AM 30.6 °F 22.4 °F 21.2 °F 68% 30.22 in 10.0 mi East 9.2 mph - N/A   Overcast
9:15 AM 30.7 °F 22.6 °F 21.0 °F 67% 30.22 in 10.0 mi East 9.2 mph - N/A   Scattered Clouds
9:35 AM 31.3 °F 23.9 °F 21.6 °F 67% 30.21 in 10.0 mi ESE 8.1 mph - N/A   Clear
9:55 AM 32.0 °F 25.6 °F 22.1 °F 67% 30.21 in 10.0 mi ESE 6.9 mph - N/A   Scattered Clouds
10:15 AM 32.2 °F 25.0 °F 21.9 °F 66% 30.21 in 10.0 mi East 8.1 mph - N/A   Mostly Cloudy
10:35 AM 32.4 °F 24.6 °F 22.3 °F 66% 30.20 in 10.0 mi East 9.2 mph - N/A   Overcast
10:55 AM 32.5 °F 23.2 °F 22.8 °F 67% 30.19 in 10.0 mi East 12.7 mph - N/A   Overcast
11:15 AM 32.9 °F 25.9 °F 23.7 °F 69% 30.18 in 10.0 mi East 8.1 mph - N/A   Overcast
11:35 AM 33.3 °F 25.7 °F 24.8 °F 71% 30.17 in 10.0 mi East 9.2 mph - N/A   Overcast
11:55 AM 33.4 °F 23.9 °F 26.1 °F 74% 30.15 in 10.0 mi East 13.8 mph 19.6 mph N/A   Overcast
12:14 PM 33.3 °F 23.2 °F 26.2 °F 75% 30.14 in 10.0 mi East 15.0 mph 20.7 mph N/A   Overcast
12:35 PM 33.4 °F 23.9 °F 27.1 °F 78% 30.13 in 10.0 mi East 13.8 mph 20.7 mph N/A   Overcast
12:55 PM 33.4 °F 23.5 °F 26.8 °F 77% 30.12 in 10.0 mi ESE 15.0 mph 19.6 mph N/A   Overcast
1:15 PM 33.4 °F 22.7 °F 26.8 °F 77% 30.10 in 10.0 mi East 17.3 mph 20.7 mph N/A   Overcast
1:35 PM 33.3 °F 23.7 °F 26.6 °F 77% 30.10 in 10.0 mi East 13.8 mph 20.7 mph N/A   Overcast
1:55 PM 33.4 °F 24.8 °F 27.1 °F 78% 30.08 in 7.0 mi ESE 11.5 mph 21.9 mph N/A Snow Light Snow
2:15 PM 32.2 °F 22.7 °F 28.9 °F 88% 30.07 in 1.5 mi East 12.7 mph 19.6 mph N/A Snow Light Snow
2:35 PM 32.0 °F 20.8 °F 29.7 °F 91% 30.05 in 1.2 mi East 17.3 mph 23.0 mph N/A Snow Light Snow
2:54 PM 31.6 °F 22.1 °F 29.3 °F 91% 30.03 in 1.2 mi East 12.7 mph 20.7 mph N/A Snow Light Snow
3:15 PM 31.3 °F 20.7 °F 27.7 °F 87% 30.02 in 5.0 mi East 15.0 mph 21.9 mph N/A Snow Light Snow
3:35 PM 30.7 °F 21.4 °F 27.9 °F 89% 30.02 in 1.0 mi East 11.5 mph - N/A Snow Light Snow
3:55 PM 30.6 °F 20.2 °F 27.7 °F 89% 30.01 in 1.8 mi East 13.8 mph 21.9 mph N/A Snow Light Snow
4:15 PM 30.4 °F 19.5 °F 26.6 °F 86% 30.01 in 1.5 mi East 15.0 mph 24.2 mph N/A Snow Light Snow
4:34 PM 29.7 °F 18.6 °F 27.9 °F 93% 30.00 in 0.8 mi East 15.0 mph 21.9 mph N/A Snow Snow
4:53 PM 29.3 °F 19.1 °F 27.3 °F 92% 29.99 in 0.8 mi East 12.7 mph 20.7 mph N/A Snow Light Snow
5:13 PM 28.4 °F 15.8 °F 26.6 °F 93% 29.98 in 0.8 mi East 18.4 mph 26.5 mph N/A Snow Light Snow
5:34 PM 28.2 °F 16.3 °F 26.2 °F 92% 29.97 in 1.2 mi East 16.1 mph 24.2 mph N/A Snow Light Snow
5:54 PM 28.0 °F 16.1 °F 26.4 °F 94% 29.95 in 1.8 mi East 16.1 mph 20.7 mph N/A Snow Light Snow
6:15 PM 28.0 °F 17.0 °F 25.3 °F 90% 29.94 in 3.0 mi East 13.8 mph 23.0 mph N/A Snow Light Snow
6:34 PM 27.9 °F 15.9 °F 24.6 °F 88% 29.93 in 3.0 mi East 16.1 mph 23.0 mph N/A Snow Light Snow
6:54 PM 27.5 °F 16.3 °F 24.4 °F 88% 29.92 in 3.0 mi East 13.8 mph 21.9 mph N/A Snow Light Snow
7:14 PM 27.5 °F 16.3 °F 24.3 °F 88% 29.91 in 5.0 mi East 13.8 mph 21.9 mph N/A Snow Light Snow
7:34 PM 27.5 °F 14.2 °F 23.7 °F 86% 29.89 in 10.0 mi East 19.6 mph - N/A   Overcast
7:55 PM 27.5 °F 16.8 °F 23.4 °F 84% 29.88 in 10.0 mi East 12.7 mph 21.9 mph N/A   Overcast
8:14 PM 27.5 °F 16.8 °F 23.9 °F 86% 29.87 in 10.0 mi East 12.7 mph - N/A   Overcast
8:34 PM 27.9 °F 18.4 °F 23.9 °F 85% 29.88 in 10.0 mi East 10.4 mph - N/A   Overcast
8:54 PM 27.9 °F 17.8 °F 23.9 °F 85% 29.87 in 10.0 mi ENE 11.5 mph - N/A   Overcast
9:14 PM 27.9 °F 18.4 °F 24.3 °F 86% 29.86 in 10.0 mi ENE 10.4 mph - N/A   Overcast
9:35 PM 27.9 °F 17.3 °F 24.8 °F 88% 29.83 in 7.0 mi ENE 12.7 mph 17.3 mph N/A   Overcast
9:54 PM 28.0 °F 17.0 °F 24.8 °F 88% 29.82 in 5.0 mi ENE 13.8 mph 19.6 mph N/A Snow Light Snow
10:15 PM 28.2 °F 17.7 °F 24.8 °F 87% 29.82 in 3.0 mi ENE 12.7 mph 19.6 mph N/A Snow Light Snow
10:35 PM 28.0 °F 18.1 °F 25.5 °F 90% 29.81 in 2.0 mi ENE 11.5 mph - N/A Snow Light Snow
10:54 PM 28.4 °F 18.0 °F 25.5 °F 89% 29.80 in 5.0 mi ENE 12.7 mph - N/A Snow Light Snow
11:15 PM 28.4 °F 22.2 °F 26.1 °F 91% 29.80 in 7.0 mi NE 5.8 mph - N/A   Overcast
11:54 PM 29.1 °F 19.4 °F 26.4 °F 90% 29.77 in 10.0 mi NE 11.5 mph - N/A   Overcast